Wind_Speed
4 3 2 4 7 7 9 10 7 5 6 5 4 3 4 4 4 5 4 6 4 4 6 9 9 11 11 10 10 6 6 8 11 10 10 9 8 9 10 11 12 11 8 11 18 20 20 21 19 19 21 20 20 21 21 22 24 24 24 24 26 27 27 28 28 28 28 28 27 25 24 23 23 23 24 24 23 23 22 21 21 20 20 19 19 19
4 4 7 9 9 8 8 9 6 2 3 2 3 2 3 4 5 6 4 5 1 3 6 6 7 12 12 11 11 4 7 9 13 13 14 13 11 10 11 13 12 7 5 10 15 19 21 21 20 21 22 22 22 23 23 23 24 25 25 25 26 28 29 29 29 28 28 27 26 24 23 24 26 26 26 25 24 23 23 22 21 21 20 19 20 20
2 4 11 11 5 4 3 4 5 4 4 2 1 2 4 3 4 6 4 4 0 3 5 5 5 10 11 10 10 8 8 10 12 14 15 13 12 11 12 13 10 7 7 9 12 17 22 22 22 23 23 24 24 24 24 24 24 26 27 26 28 29 29 29 29 27 25 25 23 22 24 27 28 26 26 26 24 23 23 22 21 21 20 20 20 20
3 6 12 9 6 5 3 3 6 3 4 4 3 3 4 4 2 3 4 3 1 2 3 5 6 8 9 8 10 12 9 8 10 13 12 11 12 14 14 12 12 13 12 11 11 14 19 22 23 25 25 25 25 25 25 26 25 26 27 27 29 28 27 28 28 27 27 26 25 25 27 28 27 26 25 26 24 23 22 22 21 20 20 19 19 20
6 7 4 6 8 7 5 4 6 5 3 5 5 6 5 4 5 6 4 4 3 4 2 3 6 7 7 8 11 9 4 7 10 10 10 12 12 11 10 11 13 14 13 13 12 13 18 22 24 26 26 25 26 26 27 28 27 27 28 28 29 28 27 27 28 29 30 30 29 30 29 26 25 25 25 26 25 23 23 22 22 21 20 19 20 21
8 6 3 7 5 7 6 5 5 7 4 5 5 9 9 7 7 5 2 4 4 5 3 2 4 7 4 5 9 6 4 7 7 7 11 13 11 9 10 11 11 9 10 11 12 14 17 21 22 24 26 26 27 28 29 29 28 28 29 29 28 27 27 27 28 30 31 31 31 31 29 27 27 26 24 25 26 25 25 24 23 23 22 22 23 24
5 6 4 6 5 7 6 5 6 7 6 4 6 8 8 7 5 4 1 2 0 4 3 2 2 7 6 4 8 6 7 11 9 8 12 12 9 9 10 10 9 9 9 9 11 13 17 20 22 25 28 29 30 30 30 29 28 29 30 29 27 26 26 27 28 29 30 30 29 27 26 26 28 26 24 25 27 27 27 27 26 26 26 26 27 27
5 7 6 6 6 6 6 4 6 8 7 4 5 6 7 6 5 4 4 4 3 3 4 3 3 5 8 6 7 6 8 13 13 12 13 12 10 10 10 9 10 11 12 12 12 13 17 23 26 27 31 31 31 32 31 30 30 30 30 29 28 27 27 27 27 28 27 26 26 26 26 27 28 27 26 28 29 29 30 30 30 30 30 29 28 28
4 7 8 9 6 5 6 5 7 10 6 6 4 6 6 6 5 4 5 3 1 2 4 3 2 3 8 6 4 2 6 11 13 13 14 13 11 10 10 9 10 11 12 13 13 15 19 25 28 29 30 30 31 31 31 31 30 30 29 29 29 29 28 27 27 27 25 24 26 27 28 28 28 29 30 31 32 32 33 33 33 32 32 31 30 29
2 6 8 8 6 7 5 2 6 10 5 4 6 7 6 5 5 5 4 3 3 2 5 5 4 4 7 5 2 1 3 9 11 10 11 11 10 8 8 9 9 8 9 11 12 15 20 25 27 27 28 29 30 30 30 30 30 29 29 29 29 29 29 28 27 27 27 26 28 29 30 30 31 33 33 33 34 35 35 35 35 34 33 32 30 29
2 1 2 3 4 5 4 3 2 5 5 5 7 6 6 6 5 4 3 4 2 4 6 9 9 6 6 4 4 3 5 7 8 7 8 8 8 7 7 7 8 8 8 9 9 12 18 22 24 25 27 29 29 29 29 30 30 30 29 29 29 29 29 29 28 28 28 28 29 29 30 33 35 37 37 37 37 37 37 37 36 34 33 32 31 30
5 2 1 1 2 4 6 5 3 3 3 6 5 5 4 4 4 4 4 4 0 6 6 6 6 7 7 6 3 6 6 5 7 7 8 8 7 6 6 6 8 8 8 9 8 10 14 17 20 24 26 28 29 29 29 30 31 31 30 30 30 29 30 30 30 29 29 30 30 30 31 35 38 40 40 40 40 39 39 38 37 35 34 32 31 30
3 3 3 2 1 4 6 4 3 5 4 5 5 6 3 2 3 3 3 0 3 7 5 1 2 4 9 8 7 10 11 10 9 8 7 8 7 7 6 7 7 7 8 9 9 9 11 13 19 23 25 27 29 30 30 31 31 31 31 31 31 31 31 31 31 31 31 31 30 31 34 37 40 41 40 41 41 40 40 39 39 37 36 34 33 31
3 5 2 0 2 3 8 7 3 1 2 5 6 6 5 2 0 3 3 2 4 6 4 1 2 4 5 5 10 16 16 13 8 6 7 8 9 9 6 7 7 7 9 9 9 10 10 14 19 23 25 27 29 31 31 31 32 32 32 32 32 33 32 32 32 32 32 31 31 33 36 40 42 41 40 40 41 40 40 39 39 38 37 36 34 32
5 6 4 7 3 5 10 8 5 6 5 4 4 5 5 5 4 4 4 4 4 4 4 2 2 4 2 3 8 11 10 9 6 7 6 6 7 6 2 5 7 8 8 7 9 10 11 16 21 23 25 27 29 31 32 32 33 33 33 33 33 34 34 34 33 32 32 31 32 35 38 41 42 41 40 40 40 40 40 39 38 37 36 35 34 32
4 6 6 3 1 8 10 4 5 7 3 2 3 5 3 5 5 3 3 5 3 2 4 2 4 5 4 5 7 7 7 7 6 8 6 6 5 1 2 6 7 8 8 8 9 9 11 17 21 23 25 27 29 31 32 33 34 34 33 33 34 35 36 35 34 33 32 32 34 37 40 41 41 40 40 40 39 39 39 38 37 36 35 34 33 32
3 4 4 2 3 4 6 3 4 4 3 2 2 4 4 4 5 2 3 1 2 3 4 3 6 5 3 7 8 6 8 8 8 9 7 6 5 3 5 6 7 8 8 8 9 8 11 16 21 23 26 27 29 31 32 34 35 35 35 35 34 35 36 36 35 34 33 33 35 38 40 41 41 40 40 40 40 39 38 37 36 36 35 34 33 31
5 2 4 1 1 3 1 4 3 2 4 5 3 6 2 2 2 2 1 3 3 4 5 3 7 5 2 6 5 1 5 10 12 10 7 7 6 7 8 7 7 7 7 7 7 8 10 16 20 22 24 27 29 31 32 33 34 35 35 36 36 36 37 37 36 35 35 35 36 39 41 41 41 40 40 39 39 39 38 37 36 36 35 34 32 31
4 2 4 1 3 2 2 4 3 4 3 5 4 5 4 1 1 2 2 2 1 4 5 3 6 5 6 6 2 2 7 10 12 9 6 9 9 9 10 7 7 6 6 7 7 8 9 15 19 21 23 25 27 29 30 31 32 34 35 36 37 37 37 37 36 36 36 35 36 39 41 41 41 40 40 39 39 39 38 38 37 36 35 34 32 31
3 3 3 1 1 1 2 2 4 2 1 3 1 2 2 2 3 3 3 3 3 3 4 3 2 4 7 7 7 9 11 10 10 7 7 11 12 11 10 7 7 8 8 8 9 8 9 14 20 23 24 26 27 28 29 30 32 34 35 36 36 36 36 36 36 37 37 37 37 39 41 41 41 40 40 39 39 38 38 38 37 36 35 34 32 31
2 3 3 1 2 1 3 4 8 10 6 3 4 4 3 1 2 1 1 2 3 3 3 4 5 6 5 5 9 11 11 10 9 8 8 10 11 11 9 8 8 9 9 9 9 8 9 14 19 22 24 26 27 29 30 32 33 34 35 36 36 37 37 38 38 38 38 38 38 41 43 42 41 41 40 39 39 38 38 37 37 36 35 34 33 32
3 3 4 2 2 4 5 4 5 8 7 6 7 8 8 6 4 2 3 2 2 3 4 3 7 8 4 4 7 8 8 9 9 9 9 9 11 11 8 8 9 9 9 9 8 8 9 14 19 21 24 27 28 30 31 33 34 35 36 37 38 38 39 40 40 40 39 40 40 42 44 43 42 41 40 40 39 39 38 38 36 36 35 34 33 32
4 3 3 3 4 5 6 4 2 4 3 3 3 5 6 5 5 5 5 4 2 3 3 2 6 9 4 5 7 6 7 6 6 7 8 9 10 8 7 7 7 8 8 7 8 8 10 15 20 22 25 28 30 31 33 34 35 36 37 38 39 40 41 41 41 41 40 40 41 42 43 43 42 41 40 40 40 39 39 38 37 36 36 35 34 32
3 3 3 1 2 3 4 4 4 2 3 3 2 3 6 8 7 6 5 4 3 5 4 2 6 8 3 1 2 3 4 4 4 5 8 9 9 7 7 6 6 7 7 7 7 7 10 15 18 21 23 26 28 30 32 34 35 36 37 38 39 40 40 40 40 40 40 41 41 42 42 42 42 41 41 41 41 40 39 38 38 37 36 35 34 32
4 4 4 2 1 3 4 3 3 2 2 3 4 5 8 10 8 3 0 3 3 9 8 5 9 7 2 5 4 3 4 5 6 6 7 8 9 7 6 5 6 8 7 8 9 8 10 13 15 18 22 24 27 29 32 34 35 36 37 38 39 39 39 40 40 41 41 41 42 42 42 42 42 42 42 42 41 41 40 39 39 38 37 36 34 32
6 5 6 6 7 8 7 6 5 3 3 2 4 6 8 10 11 7 2 4 9 8 8 8 12 7 1 4 5 4 3 5 7 7 6 7 8 7 5 6 7 8 8 10 9 9 9 10 12 17 21 24 27 29 30 32 33 34 35 36 37 38 39 40 41 41 42 42 42 42 43 43 43 43 43 42 42 41 41 40 40 39 38 37 35 34
4 5 10 12 13 13 11 6 5 8 7 6 8 11 12 13 13 9 6 8 8 1 3 13 13 10 10 5 5 7 5 5 8 8 7 7 7 8 7 7 6 7 7 8 8 8 10 11 13 17 21 24 25 27 29 30 31 32 33 35 36 37 39 41 41 42 42 43 43 43 44 44 44 44 43 43 42 41 41 41 41 40 39 37 36 35
4 4 12 15 16 17 13 7 9 12 12 13 13 13 15 16 14 13 14 12 5 4 11 15 8 11 20 11 9 11 7 7 10 8 8 8 7 7 5 4 6 7 7 7 9 11 12 13 12 15 20 23 24 26 28 29 31 33 34 35 36 37 39 41 42 42 42 42 43 43 44 44 43 43 43 43 42 41 41 41 42 41 40 38 37 37
4 6 12 15 16 18 17 9 11 13 12 12 15 16 17 17 17 20 22 15 7 7 20 17 8 13 22 13 11 13 9 11 13 10 8 7 5 4 4 6 8 8 8 10 12 13 13 13 12 14 20 23 24 26 28 29 31 33 34 35 36 37 39 40 41 41 41 42 43 44 44 43 42 43 43 42 42 41 41 42 43 42 40 39 38 37
4 6 10 13 14 17 17 9 11 12 10 8 13 16 18 21 24 24 23 18 13 15 24 20 11 18 19 8 9 10 10 12 11 7 6 6 6 7 8 9 9 9 10 13 14 14 14 13 13 14 19 22 26 28 29 30 32 34 35 36 36 38 39 40 41 41 41 42 43 42 41 41 42 42 42 42 42 42 42 42 43 42 41 40 39 38
2 4 5 7 9 14 15 8 9 12 11 10 12 14 18 22 22 19 17 15 14 17 22 20 17 20 12 5 7 7 7 8 8 7 9 8 9 9 9 9 10 10 12 13 13 13 13 12 12 13 18 24 29 31 32 32 33 34 35 35 37 38 39 40 40 40 40 41 40 39 39 40 41 41 41 42 42 42 42 42 42 42 41 40 39 38
2 1 1 4 6 12 12 8 8 9 9 10 14 19 23 20 14 12 13 14 15 17 20 16 15 18 10 4 7 7 7 8 10 10 11 10 9 10 10 12 12 11 13 13 13 13 12 13 13 15 21 27 30 32 33 33 33 33 35 36 36 36 37 38 39 38 38 37 36 37 38 39 40 40 41 41 41 42 41 41 41 41 41 40 40 39
4 4 1 4 6 10 7 8 9 6 4 8 16 22 21 14 10 11 14 16 16 16 15 13 15 20 11 6 8 8 7 10 12 11 12 11 9 10 11 13 13 13 14 14 13 13 14 14 17 20 25 28 30 33 34 34 34 34 34 34 33 33 34 36 36 35 35 34 34 35 37 38 39 39 40 41 41 41 40 40 41 41 41 41 40 40
4 6 4 4 5 8 5 9 7 5 7 11 11 11 13 15 16 17 16 17 17 15 14 15 17 19 13 7 10 11 9 10 12 12 12 9 8 9 11 13 14 13 13 11 11 12 12 13 16 21 24 25 27 29 30 30 30 29 28 28 29 30 32 33 33 32 32 32 33 34 35 36 37 38 39 40 40 40 40 40 41 41 41 41 40 40
7 7 5 3 3 4 4 8 5 8 11 9 3 0 8 14 17 18 18 19 18 17 18 20 20 21 17 11 11 11 10 10 10 11 10 7 7 9 12 14 14 12 11 10 11 11 11 13 16 20 22 24 25 25 25 27 27 25 25 26 28 29 30 31 30 29 30 31 31 33 34 35 37 38 38 39 39 39 39 40 41 41 41 41 40 40
10 7 4 3 3 1 3 6 9 7 4 7 5 0 2 3 7 10 13 17 19 19 19 20 22 23 21 16 13 11 9 7 8 9 8 8 9 11 12 12 11 11 11 10 9 10 11 14 17 18 19 22 24 25 26 27 27 26 26 27 28 29 30 29 29 29 30 32 32 34 35 36 37 37 38 38 38 38 39 40 41 41 40 40 39 39
9 8 4 4 5 4 5 8 7 5 8 13 9 5 6 6 9 10 9 14 18 18 17 17 21 22 19 17 16 11 4 4 9 11 9 10 11 11 10 10 7 8 8 7 9 11 14 17 18 18 20 22 25 27 27 28 28 27 26 27 28 29 29 30 31 32 33 33 34 35 36 37 37 37 37 37 38 39 40 41 41 40 40 39 39 39
7 8 8 8 6 5 6 8 5 4 11 13 8 6 8 8 9 11 8 11 12 11 13 14 17 19 18 16 14 5 3 2 11 13 6 7 9 7 7 7 5 6 9 10 12 13 15 18 19 20 22 24 24 26 27 28 29 28 27 27 28 29 29 31 33 34 34 35 36 36 36 36 37 37 37 38 39 40 40 40 39 40 40 40 40 40
6 4 6 8 6 4 6 7 6 8 10 7 4 5 5 5 8 10 4 9 7 4 7 12 16 18 16 13 7 5 5 5 11 10 3 4 7 6 6 4 2 5 9 12 14 15 17 18 19 21 23 24 24 25 27 28 28 28 26 27 28 28 29 33 35 36 37 37 36 35 35 35 36 37 37 38 39 39 39 39 39 39 39 39 40 39
7 4 4 7 7 7 8 7 5 6 7 4 5 5 3 5 10 10 3 8 5 3 4 8 13 14 8 4 4 7 7 8 9 7 4 1 1 1 3 4 3 5 7 10 13 16 18 19 21 22 23 24 24 25 26 27 27 27 27 27 27 29 32 36 37 37 36 35 33 32 33 34 35 36 37 37 38 38 38 38 38 37 38 38 38 37
6 5 5 7 9 9 10 8 4 5 5 5 7 7 6 6 7 7 8 6 4 5 5 5 8 8 4 5 5 6 6 5 5 5 2 3 4 4 5 5 7 8 10 12 15 18 19 19 19 20 20 21 22 23 24 26 26 27 26 26 27 32 35 35 34 32 31 30 29 30 31 32 33 35 35 36 36 35 36 36 36 36 37 36 36 36
5 5 4 7 8 7 7 7 4 5 5 6 6 4 5 5 5 7 6 1 4 5 4 4 5 6 5 6 5 5 3 3 2 1 3 5 5 5 5 6 9 10 11 14 17 18 19 17 16 17 17 18 21 22 24 27 27 26 25 26 29 33 33 30 28 28 27 26 27 27 28 29 31 32 33 34 34 33 34 34 34 35 34 34 35 35
7 6 4 6 6 3 4 6 5 5 4 10 11 3 3 5 5 4 2 2 4 4 3 3 5 5 5 4 3 4 2 2 3 3 5 5 5 5 5 5 7 8 10 13 14 16 19 18 16 17 17 18 21 22 25 27 26 24 25 27 29 28 25 24 24 23 22 23 24 25 26 27 28 29 30 31 32 32 33 33 32 33 32 33 34 34
5 6 4 5 5 4 5 7 4 3 4 9 9 4 4 5 4 3 4 3 4 4 3 3 4 4 5 6 5 5 3 3 3 4 5 5 5 5 5 6 7 8 10 11 12 15 18 18 17 16 16 18 20 21 24 25 24 23 25 24 22 20 18 18 18 18 18 20 21 22 23 24 25 26 27 29 29 30 31 31 30 31 31 32 33 33
4 3 3 3 4 3 4 4 2 0 2 2 1 0 1 0 1 4 4 3 2 4 3 4 4 4 5 7 7 4 3 3 4 4 5 5 5 5 6 6 7 9 10 12 13 14 17 18 19 18 16 16 18 20 22 22 22 23 22 18 14 13 13 13 13 14 15 17 18 19 20 21 22 23 24 26 27 28 29 29 30 30 31 31 32 33
1 0 1 2 1 1 1 2 1 1 2 1 1 2 2 1 1 3 4 2 1 3 3 4 5 5 5 6 6 4 3 4 4 4 4 5 5 5 6 6 8 10 12 13 14 15 17 19 20 20 18 17 17 20 21 20 18 17 15 12 10 9 8 9 11 12 13 15 16 17 18 19 20 21 22 23 25 26 27 28 29 30 30 31 32 33
2 1 2 2 3 3 2 3 3 2 3 2 2 3 3 2 1 1 2 1 2 3 2 2 4 5 5 5 6 6 5 5 5 5 4 5 5 5 5 5 7 9 12 14 16 18 20 21 20 20 20 19 18 19 19 16 13 11 10 9 8 7 7 8 9 11 12 14 14 15 16 17 18 19 20 22 23 25 26 27 28 29 30 31 32 33
2 3 3 1 4 4 2 3 3 2 4 4 2 2 3 3 2 1 1 1 2 3 2 2 4 5 4 4 5 6 5 4 5 6 5 4 5 5 5 6 8 10 12 14 17 19 20 21 20 20 20 19 18 17 16 14 12 9 8 8 7 7 7 8 8 9 10 11 12 13 14 15 16 18 19 21 23 24 26 27 28 29 30 31 31 32
3 4 3 2 2 1 3 4 3 2 5 5 5 6 5 4 4 3 2 2 4 4 4 4 3 2 4 4 4 6 5 3 4 5 6 5 5 5 5 7 9 11 13 13 14 15 17 19 19 19 18 17 16 15 14 13 12 10 8 7 6 6 7 7 7 8 8 9 10 11 12 13 15 16 18 19 21 23 24 25 26 27 28 28 27 27
4 4 3 3 3 3 4 5 6 3 2 4 7 9 8 6 7 5 4 4 5 5 6 6 4 3 3 3 3 5 6 4 3 5 5 5 5 5 7 9 11 11 12 13 13 12 14 17 18 18 16 15 15 14 13 12 11 9 7 6 5 5 5 5 6 7 8 9 10 11 12 13 14 15 17 18 19 20 21 21 22 23 24 23 23 23
4 6 5 5 4 5 5 7 7 4 1 3 7 8 7 8 8 7 6 6 6 5 6 6 5 3 3 2 1 4 6 5 5 6 5 4 5 8 10 11 12 13 14 15 15 14 14 15 16 16 15 14 14 13 12 12 10 9 8 7 7 6 6 7 8 9 10 11 11 12 12 13 13 14 15 16 16 17 17 17 17 18 19 19 20 20
Wind_Direction
101 109 179 194 207 205 197 199 200 170 136 138 138 140 183 198 264 259 260 271 184 152 245 226 232 254 255 260 258 224 183 217 240 244 243 232 220 213 213 216 213 214 208 186 189 191 189 189 190 186 179 182 186 182 184 185 181 180 177 175 174 169 169 170 165 161 161 157 152 150 150 151 151 155 156 152 152 152 153 155 156 156 155 156 156 156
87 151 222 222 210 199 198 206 210 171 134 132 148 209 254 210 248 259 245 286 221 167 261 248 239 259 256 258 264 222 173 219 230 231 238 231 222 218 216 220 214 202 171 169 185 189 187 190 190 186 181 182 183 180 185 188 185 183 178 177 177 170 165 166 164 161 161 160 158 156 155 155 152 151 151 149 148 149 149 151 152 152 152 153 152 152
86 218 238 230 191 160 197 191 184 218 226 238 177 187 262 243 266 281 273 309 2 175 262 272 256 261 259 259 264 240 208 227 228 224 234 230 222 221 216 218 205 185 177 176 185 186 187 190 189 188 185 183 183 181 185 189 188 185 179 177 176 170 165 164 164 165 166 165 165 165 162 157 153 150 149 147 146 148 148 149 150 149 150 151 150 151
165 247 244 215 147 145 216 181 150 190 242 236 197 175 242 251 256 276 286 315 306 213 258 279 278 268 265 265 261 249 231 239 241 234 238 232 226 224 216 211 201 194 190 182 184 185 186 187 188 191 189 184 184 183 182 183 183 181 179 179 176 173 172 168 169 174 174 168 165 163 159 157 154 150 148 146 146 150 150 148 149 150 151 153 152 152
207 244 236 149 150 171 200 202 158 166 240 245 212 196 217 228 215 226 276 325 331 326 320 317 302 276 253 249 254 262 273 265 251 242 246 241 234 229 221 215 208 200 189 181 183 183 184 188 190 192 190 186 185 185 182 178 179 176 175 177 175 177 177 173 175 177 172 165 160 155 150 150 150 147 148 146 146 150 151 150 150 150 152 154 152 151
235 238 111 112 148 171 187 215 188 173 210 260 229 205 204 201 213 231 352 21 1 329 327 10 301 280 271 248 255 279 319 279 252 231 241 244 239 227 221 218 209 197 187 183 183 182 184 187 188 191 191 188 187 188 183 179 179 176 174 174 175 180 180 179 181 176 170 167 163 157 152 152 150 147 150 152 151 152 152 150 149 148 149 149 147 145
231 223 171 142 150 160 184 226 219 178 170 252 239 200 194 184 199 232 158 82 265 263 294 63 197 271 291 249 246 259 265 266 260 248 249 248 242 228 223 217 198 185 180 181 184 183 185 185 186 191 193 192 189 187 184 181 181 179 177 176 179 186 186 184 182 175 170 168 166 167 167 165 160 156 154 155 156 154 151 149 147 146 144 143 141 139
192 203 200 176 159 160 182 224 222 171 152 239 239 161 159 168 190 209 174 178 227 260 314 18 113 270 282 249 239 241 249 266 267 263 263 255 244 235 228 213 194 190 182 180 184 184 187 188 189 191 193 193 190 187 185 184 183 182 180 181 184 189 189 186 182 177 174 174 173 175 174 169 168 165 158 153 154 153 150 147 145 143 142 141 139 137
166 180 194 183 178 191 202 216 191 158 164 242 203 125 128 149 156 130 129 168 324 359 300 302 109 254 273 263 268 257 242 264 265 257 260 259 251 238 227 215 198 193 187 183 186 186 189 191 192 192 191 192 191 188 187 187 186 185 183 184 186 187 189 189 186 182 182 185 183 178 173 167 166 165 159 153 152 151 149 147 145 144 142 141 139 138
158 188 191 170 179 206 206 221 178 165 192 212 127 92 67 75 77 74 97 105 39 334 243 221 176 233 270 250 236 324 234 252 259 257 255 258 258 241 223 215 198 188 187 189 189 188 190 191 191 190 188 189 190 189 189 189 188 188 186 185 185 186 188 189 189 187 185 187 184 178 175 170 164 160 157 153 150 150 149 147 145 145 143 142 142 141
312 274 202 162 179 189 143 91 159 173 170 129 97 63 42 32 36 46 51 76 42 280 238 213 194 199 270 261 195 213 221 221 236 258 265 266 270 250 221 205 192 186 186 187 187 186 187 188 187 186 186 187 187 187 188 189 190 190 188 187 186 187 189 189 189 190 187 185 184 181 179 175 167 161 157 154 151 151 150 148 146 146 145 145 145 145
341 357 247 243 163 127 98 79 33 32 93 101 87 76 60 349 7 20 0 46 210 257 246 234 195 177 234 259 229 244 255 230 218 233 251 259 268 253 225 205 192 186 182 179 179 178 177 179 182 184 185 185 184 184 186 188 189 190 189 188 187 187 189 190 190 190 189 185 184 183 181 177 170 164 160 157 154 153 152 150 149 149 149 148 149 149
311 238 257 311 213 139 114 96 31 11 39 83 99 105 107 308 347 345 310 37 229 255 265 279 128 190 236 249 255 264 267 254 232 223 232 249 266 260 229 209 193 179 178 178 179 178 176 178 181 182 183 183 183 183 185 187 187 188 189 189 188 187 188 189 189 190 189 186 184 183 180 177 171 167 164 160 156 156 156 155 154 154 154 153 153 154
267 294 308 187 266 189 157 161 173 219 156 145 142 139 152 173 256 269 266 269 259 268 294 354 146 245 272 256 240 242 249 256 257 250 244 246 263 268 241 203 188 182 183 182 181 180 182 183 182 182 183 184 185 184 184 186 187 187 188 188 188 187 186 187 188 188 188 186 185 183 180 176 172 169 166 163 160 160 161 161 160 159 159 158 158 158
210 282 215 180 215 190 183 189 166 138 156 181 151 138 157 158 174 221 215 224 254 281 298 303 188 209 212 250 241 235 254 279 287 281 272 257 264 279 235 177 180 189 188 185 184 186 187 184 182 183 184 185 186 186 184 185 187 187 186 186 185 184 183 184 186 187 187 186 185 183 180 176 173 171 169 166 165 165 165 165 163 163 162 161 161 161
193 265 238 208 201 170 182 194 117 109 135 234 111 115 179 180 177 224 208 181 190 291 287 237 226 223 205 260 269 253 274 297 294 289 293 288 293 314 183 189 190 193 190 187 188 188 186 184 183 184 185 187 187 186 186 185 187 187 185 184 184 183 183 184 186 187 187 186 185 183 180 177 175 173 171 169 169 169 169 168 166 165 165 164 164 163
165 278 275 354 17 175 180 164 130 142 174 168 132 170 204 172 154 201 270 81 88 260 263 205 243 287 309 277 271 248 257 276 281 279 279 286 301 273 226 212 202 200 192 192 191 187 184 182 186 188 187 187 187 187 188 188 188 188 186 184 185 184 184 186 188 189 188 186 186 184 181 179 177 176 175 173 172 171 171 170 169 167 167 167 166 166
157 252 281 121 159 249 209 103 67 29 133 130 180 201 163 64 102 118 253 345 34 251 266 228 239 269 269 270 310 80 228 255 258 255 266 282 280 258 243 219 209 207 191 192 190 184 186 185 187 190 189 189 189 190 190 189 190 190 190 188 187 186 186 187 189 189 189 188 187 187 184 181 181 179 179 177 175 174 173 171 171 170 170 170 170 169
150 199 294 108 171 273 14 92 62 1 97 130 187 187 119 122 206 115 172 234 208 250 282 267 240 240 209 228 292 172 207 240 252 246 250 260 250 246 246 224 209 204 188 192 192 187 189 188 188 189 189 191 191 192 192 191 191 191 193 192 191 191 190 189 190 190 190 190 190 190 187 184 183 182 182 180 178 177 176 175 174 173 173 173 173 173
151 193 260 296 183 296 29 122 174 210 61 62 111 147 105 150 178 162 172 173 166 230 280 292 263 240 222 209 200 209 212 221 240 240 234 245 243 240 239 220 203 201 197 197 195 193 188 188 190 189 189 190 191 193 193 192 193 193 194 195 194 193 192 191 192 192 192 192 192 192 189 187 186 185 184 183 181 180 179 178 177 177 177 177 177 177
137 206 227 300 339 164 192 199 186 184 173 142 152 167 186 168 111 175 217 131 138 185 238 279 279 255 236 203 192 205 214 212 217 226 232 243 246 242 232 214 206 201 202 202 194 191 186 186 189 189 189 191 191 193 194 194 195 196 196 196 195 194 193 192 194 194 194 194 193 193 191 188 188 187 187 185 184 184 182 181 181 180 181 180 180 179
183 196 170 168 216 203 224 252 213 195 185 173 183 188 189 177 135 170 251 212 155 198 190 217 271 261 229 193 194 199 208 210 206 212 231 246 247 245 234 213 207 200 202 204 191 184 184 183 186 186 187 189 190 192 195 195 196 196 197 197 196 195 195 195 194 195 195 194 193 193 191 190 189 189 189 188 187 186 185 184 184 184 184 183 183 182
148 116 133 170 218 219 238 276 269 213 171 132 193 191 175 178 154 164 226 226 185 232 190 141 275 273 242 187 196 201 207 218 212 201 222 250 252 249 237 215 204 201 201 198 188 184 185 184 184 185 186 189 191 193 194 195 196 198 198 197 196 196 196 196 196 195 195 194 193 192 191 191 190 190 191 190 189 189 188 187 187 187 188 186 185 185
111 124 157 193 313 316 305 322 359 35 106 112 233 181 167 199 193 179 206 186 181 233 190 134 264 268 289 255 227 252 255 264 263 216 218 249 265 258 235 213 194 198 197 189 188 184 181 183 184 186 189 191 193 194 194 195 197 198 199 198 197 197 196 196 195 194 193 193 192 191 191 191 192 192 193 192 192 191 190 190 190 190 190 189 188 187
178 176 151 139 259 329 331 317 328 313 181 192 224 198 190 201 192 192 130 110 239 233 179 183 252 244 277 317 323 336 309 285 270 250 229 240 258 261 240 213 195 195 191 186 186 182 180 184 187 191 194 193 193 195 195 196 197 198 199 198 197 196 196 195 194 193 192 192 191 191 191 192 193 194 194 194 194 194 193 193 193 192 192 192 191 190
174 176 163 175 207 218 218 217 211 190 172 201 220 194 199 202 190 199 210 189 239 232 159 200 246 240 265 314 306 300 297 281 266 260 252 243 254 262 238 212 203 195 195 192 185 183 184 186 192 196 197 197 196 197 196 197 197 197 198 198 198 196 195 195 194 193 192 191 190 191 192 194 194 195 196 196 196 196 196 195 195 194 194 195 194 193
139 182 189 195 210 218 221 211 151 135 153 202 207 188 199 209 197 197 219 219 223 182 188 226 237 258 266 248 257 266 246 247 256 253 259 258 258 258 237 217 209 197 196 190 180 185 188 191 197 197 199 200 199 198 197 197 196 196 197 198 198 198 196 195 194 193 192 192 191 192 193 195 196 196 197 198 199 199 198 197 197 197 197 197 197 196
111 193 203 207 217 225 229 207 151 155 179 199 199 191 202 208 196 199 219 221 166 114 254 244 198 246 261 239 230 251 231 232 250 240 244 250 244 244 230 204 208 199 189 183 188 196 197 199 199 194 197 199 197 197 197 196 197 197 198 199 198 198 197 195 194 193 193 192 192 194 195 196 197 197 198 200 201 201 200 199 199 199 199 198 199 200
142 201 208 211 222 231 233 207 161 175 193 196 197 198 203 203 200 208 219 218 164 184 251 252 173 222 256 247 226 234 215 224 238 225 228 242 236 224 198 198 212 204 194 196 201 205 203 203 201 193 194 194 193 195 195 196 197 197 199 200 198 198 198 196 194 194 194 194 195 197 197 197 197 198 199 201 202 202 202 201 200 200 200 200 201 202
177 204 203 205 219 236 238 205 164 184 201 203 206 205 204 205 206 211 217 217 205 217 245 254 236 243 255 237 214 220 208 224 239 228 224 227 220 214 204 214 223 210 206 209 209 210 207 204 201 193 191 190 191 194 194 195 197 197 198 199 198 198 198 197 196 195 196 197 197 197 197 197 198 199 200 201 203 203 203 202 201 201 201 202 203 204
215 210 190 181 207 239 240 204 167 189 202 213 222 219 217 216 213 213 218 218 216 230 245 252 258 260 253 197 217 220 193 222 247 242 235 229 221 216 210 223 227 218 218 219 215 213 207 202 198 191 193 195 195 194 194 196 197 196 198 199 198 199 198 197 197 197 198 199 198 197 197 197 198 199 200 202 203 204 203 202 202 202 203 204 205 206
174 205 45 130 193 239 236 189 179 203 210 226 237 232 226 221 214 211 216 214 208 222 239 247 254 258 245 195 238 226 178 213 236 233 236 235 222 213 214 224 227 223 223 222 217 212 204 199 197 194 198 200 197 195 195 195 194 196 198 199 198 198 196 196 198 198 200 200 198 197 197 197 198 199 200 202 203 204 204 203 203 203 204 205 207 208
152 162 145 148 197 246 234 157 168 198 215 240 242 236 229 216 203 210 221 222 212 211 227 231 239 250 244 195 227 231 199 218 231 229 233 235 224 217 219 224 227 225 223 221 217 210 205 203 202 201 202 200 197 197 197 194 193 196 198 197 195 195 194 196 198 199 201 201 200 198 198 197 198 199 200 202 203 204 204 203 204 205 206 208 209 210
164 175 190 170 196 240 208 131 134 189 221 237 239 229 220 206 201 210 222 225 217 212 225 233 241 253 249 203 218 234 222 222 233 235 233 226 215 217 225 230 232 231 228 225 219 211 208 207 204 203 204 203 201 200 197 195 195 196 195 193 192 193 194 196 198 200 202 202 201 200 199 198 199 200 201 203 204 204 205 206 207 208 209 210 211 211
173 185 194 171 195 232 153 119 166 216 224 247 296 132 211 206 201 209 222 228 222 218 229 240 249 255 252 234 231 240 236 237 246 249 246 234 213 214 225 231 231 231 231 226 219 214 208 200 197 197 199 198 196 194 191 192 193 191 190 190 191 193 195 197 199 201 203 204 203 202 201 201 202 202 203 204 204 205 206 208 210 210 211 212 213 215
172 178 181 155 170 184 123 169 217 237 276 290 300 44 174 155 164 198 230 239 230 221 224 233 243 250 252 250 247 244 245 265 278 263 242 229 223 219 226 234 232 229 231 226 215 208 198 193 193 191 188 186 186 186 186 188 188 185 187 190 192 194 196 198 199 202 205 206 206 205 204 204 204 205 205 205 206 207 208 210 212 212 213 214 216 218
171 173 181 190 194 194 199 216 237 304 304 277 258 195 163 154 158 176 220 246 236 224 218 224 238 247 251 254 255 253 264 332 299 270 233 218 228 229 232 242 236 222 220 207 196 193 189 189 188 182 179 179 180 183 184 183 183 183 184 187 191 194 197 198 202 206 207 208 209 208 208 207 207 207 206 207 208 209 211 212 213 214 215 216 218 219
182 181 183 197 204 196 213 232 240 251 257 258 242 180 172 178 170 164 198 249 246 222 206 211 232 244 247 251 253 250 69 349 277 270 247 209 221 226 228 237 223 193 187 176 172 172 172 176 175 173 175 175 177 181 182 180 181 181 182 186 190 194 196 200 206 208 209 211 212 211 210 209 209 210 209 210 211 213 214 215 216 218 219 220 221 222
207 196 180 195 200 182 205 226 220 226 245 248 203 178 169 159 139 130 181 256 251 204 186 196 220 235 240 245 236 135 117 240 257 268 274 195 203 201 197 205 175 161 171 169 165 160 158 161 163 164 169 170 172 178 180 179 180 179 182 188 191 193 198 205 209 210 211 213 213 212 212 212 212 213 213 214 216 217 217 218 220 221 223 223 225 226
209 199 181 200 206 195 205 220 222 237 251 217 182 197 197 151 125 117 204 252 222 192 193 194 218 234 228 206 158 146 179 224 247 272 299 254 179 138 143 147 131 139 147 150 156 156 152 154 155 156 162 167 169 173 176 178 179 181 186 190 191 196 205 210 212 212 213 214 213 213 215 215 215 217 218 219 221 221 222 223 223 224 225 226 227 228
205 202 193 204 212 207 210 223 239 247 239 195 186 191 168 136 132 168 221 228 166 194 218 191 221 247 210 156 165 189 213 243 260 276 332 64 74 50 57 91 108 115 121 129 140 144 144 148 152 153 158 164 167 172 176 178 179 183 188 189 193 204 212 214 214 214 214 214 215 216 218 218 220 222 223 225 226 225 226 226 226 227 228 228 229 229
191 197 196 204 210 211 215 220 237 260 233 154 148 179 163 149 184 207 215 146 139 189 209 191 219 238 200 176 190 205 235 317 316 287 64 75 91 77 62 82 95 100 110 120 129 135 135 134 139 144 151 162 170 175 178 179 180 183 186 190 201 212 215 214 214 215 214 215 217 219 221 222 224 226 227 228 228 227 228 229 229 230 231 230 230 231
175 175 191 202 194 188 212 208 215 257 210 138 125 145 209 200 206 192 138 129 185 186 176 197 223 213 169 155 164 174 160 51 63 92 77 73 88 90 83 88 93 94 102 110 121 133 134 130 133 142 151 163 171 176 178 178 179 180 186 196 208 214 214 213 215 215 215 217 220 222 224 226 228 229 229 230 229 229 231 231 231 231 231 231 231 232
181 178 191 201 184 167 196 210 212 228 185 147 132 153 204 202 196 159 130 153 198 197 174 190 215 201 164 145 140 151 152 125 122 117 105 104 111 108 97 91 93 97 102 110 121 133 134 131 133 139 148 160 168 173 178 179 178 181 190 200 207 210 209 211 213 214 216 219 222 225 228 229 230 231 231 231 231 230 231 232 231 231 231 231 231 232
197 179 166 182 189 177 190 211 230 265 188 159 101 274 235 248 159 148 124 112 181 201 180 164 181 185 159 142 139 144 161 163 146 126 123 128 124 114 104 98 100 105 110 116 125 134 138 136 136 138 143 155 165 171 177 182 184 185 190 196 201 203 205 208 209 212 216 220 223 227 229 230 231 232 232 233 232 231 231 231 231 230 231 231 231 232
247 169 105 123 167 234 231 189 182 289 276 264 304 268 254 328 45 124 105 77 174 198 188 170 171 170 159 151 141 127 147 159 138 117 125 128 116 107 104 102 108 118 125 130 134 140 141 138 139 140 140 148 162 169 175 183 186 184 182 184 189 196 199 200 205 210 214 218 222 224 226 228 230 231 233 234 234 235 235 234 233 233 232 231 231 233
291 188 84 99 173 187 209 190 172 215 257 249 298 290 253 250 255 145 136 192 184 178 194 165 142 142 150 150 139 134 150 157 139 128 130 123 117 121 120 117 125 134 139 143 145 147 146 141 140 143 144 149 160 167 170 175 174 169 168 171 176 184 190 194 200 206 210 214 218 221 224 228 230 231 232 233 234 235 235 235 236 235 234 233 233 233
218 139 113 182 199 188 213 224 217 281 277 242 228 245 226 211 195 149 174 206 141 121 92 84 111 133 149 152 143 142 150 159 145 138 139 134 131 135 135 136 141 141 142 145 147 148 146 143 142 146 148 150 157 163 167 166 160 152 152 156 160 167 178 186 192 200 207 212 217 222 226 230 233 234 235 235 235 235 235 235 235 235 236 237 237 236
149 151 158 163 167 242 270 229 198 289 288 252 223 223 218 187 154 136 139 145 129 115 96 80 76 126 154 159 153 139 139 156 149 135 137 139 136 137 141 141 138 135 135 138 141 144 144 142 143 145 146 149 157 163 164 163 161 157 151 149 153 157 166 177 184 192 202 210 217 225 229 231 235 237 238 239 239 238 238 238 238 239 241 243 244 245
147 167 163 126 147 226 234 187 163 161 228 224 217 219 212 178 153 151 155 149 145 139 126 107 68 41 84 124 147 147 149 160 151 136 135 139 143 146 143 134 128 127 132 134 135 139 140 140 142 142 143 150 157 160 162 165 169 173 175 173 175 177 182 189 193 198 209 216 221 227 230 232 235 237 239 240 240 239 239 239 241 243 245 247 249 252
169 180 175 160 184 227 210 176 167 156 161 215 218 212 192 165 155 161 169 166 163 159 146 132 119 100 79 51 74 151 159 162 152 140 131 132 147 150 146 143 139 139 143 144 140 136 135 138 140 139 139 146 156 159 161 165 168 176 185 189 193 201 208 212 213 215 219 223 227 231 234 236 237 238 239 240 241 241 241 241 242 244 247 249 251 253
Height
834 840 844 841 837 836 838 835 831 835 838 839 842 844 846 847 845 840 835 832 833 838 838 836 837 832 828 826 823 826 833 833 831 830 828 827 828 829 829 828 828 829 830 832 835 836 837 838 839 839 840 840 841 842 842 843 843 844 844 845 845 846 846 846 847 848 849 851 853 855 856 857 859 861 862 863 863 864 864 865 866 867 868 869 870 871
837 844 842 833 831 832 834 835 836 840 841 841 844 846 848 850 845 837 835 834 834 838 836 833 837 833 828 826 822 825 829 827 824 824 822 821 822 823 823 823 824 826 829 831 833 834 836 837 837 838 838 838 839 840 841 841 842 843 843 844 845 845 845 845 846 847 849 851 852 854 856 857 859 862 862 862 863 864 864 865 867 867 869 870 871 872
845 846 835 829 834 835 835 839 840 841 841 843 847 849 849 850 846 839 837 837 836 838 835 833 836 832 826 825 821 821 822 818 815 815 812 813 816 817 817 818 821 824 827 829 830 831 833 834 835 836 836 837 838 838 839 840 841 842 843 843 845 845 846 845 845 846 848 850 852 854 856 857 859 861 862 863 863 864 865 866 867 868 869 870 871 873
848 840 828 829 837 836 836 840 841 842 843 844 848 851 849 848 846 840 838 839 837 838 837 835 838 832 825 824 818 814 815 812 810 809 809 809 809 808 809 811 814 817 821 824 827 829 830 832 832 833 834 835 836 837 838 839 840 841 842 843 844 846 846 846 845 845 846 848 851 854 856 858 860 861 863 863 864 865 865 866 867 868 870 871 871 873
836 828 824 830 835 835 836 839 841 843 844 844 845 847 845 843 842 839 840 840 837 839 838 838 839 829 821 822 815 809 812 811 807 807 807 805 803 803 805 806 807 810 814 819 822 825 826 827 829 830 832 833 834 835 835 836 838 839 841 842 844 845 846 846 845 845 845 846 849 852 856 858 860 862 863 863 864 865 865 866 867 868 870 871 871 873
832 826 826 829 834 837 837 838 840 842 845 843 840 838 836 835 835 838 842 843 844 844 841 842 844 829 818 821 816 810 812 807 802 803 801 798 798 801 802 801 804 808 812 816 818 820 823 824 827 828 830 831 832 833 834 835 837 838 840 842 843 845 846 847 846 845 845 845 848 850 853 856 858 861 863 862 863 864 865 865 867 868 870 871 872 873
829 824 824 826 830 835 839 841 837 838 845 845 837 832 832 833 835 838 842 845 849 849 845 846 848 837 822 816 811 808 808 801 797 798 795 794 795 796 797 797 801 806 810 814 816 818 820 821 824 825 826 827 828 830 833 834 836 837 839 841 843 844 846 847 847 847 845 845 848 850 852 855 857 860 862 863 863 863 864 865 866 868 870 872 873 873
824 823 827 827 827 833 840 840 834 834 842 841 835 832 832 833 836 838 841 846 848 849 848 846 849 848 831 815 808 806 807 804 800 797 793 790 791 791 793 794 797 801 804 808 811 814 816 817 818 819 821 824 826 828 831 833 835 836 838 839 841 844 845 847 847 847 847 846 848 850 852 855 857 859 862 863 863 863 864 865 866 868 870 872 874 874
820 821 825 826 829 834 833 830 828 831 835 835 836 837 835 835 839 840 843 848 853 854 851 846 850 852 833 814 811 811 809 805 798 794 789 785 785 787 789 791 793 797 799 802 805 808 810 812 814 816 819 822 825 827 829 831 833 835 837 838 840 842 844 846 847 847 847 847 847 849 851 854 857 859 861 862 862 863 864 864 866 869 871 872 874 875
821 821 821 821 827 828 825 827 828 827 829 833 838 839 839 842 844 845 847 848 854 857 852 846 847 849 829 807 808 812 809 801 791 788 785 781 782 783 786 789 792 796 798 800 802 804 807 809 812 815 818 821 823 826 828 830 833 834 835 837 838 841 842 844 846 846 847 847 847 848 850 853 856 858 860 862 862 862 863 864 866 869 871 872 874 875
823 824 823 820 822 823 823 831 835 831 830 833 836 835 839 845 846 850 853 851 856 855 845 838 839 846 836 812 804 802 796 791 785 782 780 777 777 779 783 787 790 794 797 799 802 804 807 809 812 814 816 819 821 824 827 828 831 832 834 835 837 839 841 843 845 845 846 846 846 847 849 851 854 856 858 859 859 860 862 864 866 869 871 872 874 876
824 823 823 820 822 823 823 830 836 836 835 832 832 835 842 848 849 855 858 858 862 851 837 837 841 848 841 815 799 793 787 787 784 778 775 772 772 775 781 786 789 792 795 798 801 803 807 809 811 813 814 816 819 821 824 826 828 830 832 834 835 837 840 841 843 844 845 846 846 847 848 851 853 855 856 856 856 858 860 863 866 868 870 872 874 876
824 823 824 822 823 821 819 828 836 838 837 834 835 841 850 857 859 860 862 865 864 849 840 846 846 842 830 806 795 792 784 781 781 779 776 773 773 774 779 785 788 791 794 796 799 801 804 806 808 810 812 814 816 818 821 824 826 828 830 832 833 835 838 840 841 843 844 845 845 846 848 850 853 855 856 855 855 857 859 861 864 866 869 871 873 876
826 826 826 823 821 817 814 823 832 835 837 836 835 840 849 862 868 865 864 865 857 844 843 850 845 834 818 797 789 786 777 774 777 781 781 779 777 775 778 784 787 790 792 793 796 798 800 803 804 807 810 812 814 816 819 821 824 826 828 830 831 833 836 838 840 842 843 844 845 846 848 850 852 854 855 855 855 857 859 861 863 865 867 870 872 875
826 822 819 817 814 812 810 812 816 824 834 834 831 834 841 849 853 852 852 850 844 840 844 848 839 821 804 789 784 784 781 781 781 782 783 783 782 780 781 785 787 789 791 792 794 796 798 800 802 805 807 810 812 814 816 819 822 824 825 828 830 832 834 836 839 840 841 843 844 846 848 849 851 853 854 855 856 857 859 861 863 865 867 870 872 875
825 816 809 810 808 807 809 809 811 820 833 837 835 836 836 834 832 837 845 845 845 846 845 842 828 808 795 786 783 784 782 783 783 780 780 780 782 784 782 783 786 787 790 791 793 794 796 799 801 803 805 807 810 812 814 816 819 821 824 826 828 830 832 834 837 839 840 841 843 845 847 848 850 852 853 855 856 858 859 861 863 865 867 870 872 874
821 816 812 814 811 810 811 810 811 815 824 836 838 833 831 829 826 833 846 850 852 849 837 827 816 803 796 784 777 779 778 779 780 776 775 777 781 783 781 782 785 786 788 789 791 793 794 797 799 801 803 805 807 810 812 814 816 819 822 824 826 828 830 832 835 837 838 840 842 844 846 847 849 851 852 854 856 858 860 861 863 865 867 870 872 874
805 810 815 815 812 815 816 812 813 814 818 830 834 827 827 832 830 834 844 849 852 849 832 821 813 804 801 789 777 778 778 774 772 772 775 778 779 779 778 781 784 784 787 789 790 792 794 795 798 800 802 804 806 809 811 813 816 818 821 822 824 826 827 830 832 834 836 838 840 842 844 846 848 850 852 853 855 857 858 861 863 865 867 869 872 873
795 803 815 820 816 817 817 813 817 820 819 822 823 820 824 832 834 839 844 843 846 845 829 819 815 806 799 787 775 774 773 765 763 769 775 773 772 773 773 779 783 784 787 788 789 791 792 794 796 798 801 804 806 809 811 813 815 817 820 821 822 824 826 828 831 833 835 837 839 841 843 845 847 849 851 853 854 856 857 859 862 864 866 869 871 872
792 797 810 821 820 818 817 816 821 823 822 823 823 822 825 826 829 834 836 834 835 835 824 815 808 795 785 778 769 766 764 758 758 764 766 765 766 768 769 775 780 782 784 785 786 788 789 792 794 796 799 802 805 808 810 812 814 816 818 820 821 823 825 827 829 830 833 835 837 839 841 844 846 848 850 852 853 855 857 859 860 863 865 867 870 872
791 795 805 820 825 820 815 812 812 812 816 821 823 826 827 826 829 830 829 829 828 827 824 818 802 779 770 768 760 756 757 755 756 759 757 758 761 764 767 771 775 778 780 781 783 786 788 791 793 795 798 800 803 806 807 810 812 813 815 817 818 820 822 824 826 828 830 832 834 837 839 841 844 846 848 851 853 854 856 858 860 862 864 867 869 870
789 794 802 817 823 815 808 806 806 804 804 808 811 814 815 818 825 829 829 827 825 821 816 815 800 769 757 761 755 752 754 752 753 756 754 753 754 758 764 767 771 774 777 779 781 784 786 789 791 793 795 797 799 801 804 806 808 810 812 813 815 817 818 820 822 824 827 829 832 834 836 839 841 844 847 849 851 853 854 856 859 861 863 866 868 869
781 791 799 810 815 810 806 808 810 807 802 805 807 806 809 812 814 818 820 819 821 817 810 817 808 770 750 756 754 751 753 752 754 758 755 751 751 756 761 765 770 772 774 778 780 781 784 785 788 791 792 794 795 797 799 802 804 806 808 810 812 813 815 817 819 822 824 827 829 831 834 837 839 842 844 846 848 851 853 855 857 860 862 864 866 868
779 787 794 805 811 808 806 806 808 807 805 807 807 804 806 806 803 804 807 809 812 807 805 818 809 770 753 760 760 759 761 760 761 761 757 753 754 757 760 763 768 771 773 777 778 780 783 784 786 788 789 791 792 794 796 797 800 803 805 807 808 810 813 815 818 820 822 825 827 830 832 835 837 839 841 844 846 848 851 853 856 858 861 863 865 865
778 785 790 802 810 810 811 810 808 808 806 804 802 801 800 798 801 805 807 812 808 792 794 807 793 764 757 762 761 762 763 759 759 760 760 756 753 755 759 763 767 769 770 773 776 778 780 781 783 785 786 788 789 790 792 794 796 799 801 803 806 808 811 813 816 818 820 822 824 827 830 832 834 836 839 841 844 846 849 851 854 857 859 861 862 863
769 777 781 791 799 799 798 796 795 798 803 801 797 798 799 798 801 802 804 811 802 786 789 794 776 759 759 761 759 759 759 757 754 755 758 757 755 755 759 761 763 766 767 769 773 776 778 779 781 782 783 785 786 788 790 792 794 797 799 802 804 806 809 811 813 816 817 819 821 824 826 828 830 833 836 839 841 844 847 850 852 855 857 858 860 861
764 769 768 771 774 770 766 768 774 782 792 795 791 793 796 796 797 798 800 799 791 789 790 777 764 762 759 758 758 755 756 756 750 748 752 754 755 755 756 758 761 764 766 768 772 774 775 775 775 777 780 782 784 786 788 791 793 795 798 800 802 805 807 809 811 813 814 816 818 820 822 824 827 830 833 836 838 841 844 847 850 852 854 856 858 859
762 767 765 761 759 752 749 758 769 773 777 782 785 789 790 791 795 798 794 783 779 792 784 759 762 769 754 751 756 751 754 755 748 746 748 748 750 751 754 759 760 762 765 767 769 769 769 770 770 773 776 779 782 784 786 788 790 793 795 797 800 802 804 806 808 810 812 813 815 817 818 821 824 828 831 833 836 839 842 845 848 850 852 854 855 857
757 761 761 759 758 749 744 755 766 767 769 772 777 781 782 786 791 788 783 776 777 785 769 749 761 764 744 743 749 746 749 748 741 743 744 744 748 750 753 756 756 759 762 762 763 763 764 765 766 768 771 774 778 781 783 786 788 790 793 795 798 800 802 805 806 808 810 811 811 813 815 819 822 825 829 831 833 836 839 842 845 847 850 851 853 856
753 752 753 756 759 752 746 755 762 764 769 772 773 775 774 775 776 774 774 775 775 774 758 751 762 756 738 738 741 739 743 741 738 742 743 743 746 747 749 750 750 755 757 756 756 757 758 760 762 765 768 771 773 776 779 782 783 786 789 791 794 797 799 803 804 806 808 808 809 811 814 817 820 823 826 828 831 834 837 840 842 845 847 849 852 854
756 753 754 757 761 756 749 756 763 764 768 770 770 771 768 764 767 771 773 774 776 773 761 759 765 752 735 735 737 737 740 740 739 741 741 741 742 743 746 746 747 750 751 751 752 752 754 757 760 763 765 765 767 769 772 776 779 782 785 788 791 793 796 800 802 804 806 807 808 810 812 816 818 821 824 826 829 832 835 838 840 843 845 848 850 852
758 761 761 760 763 756 747 756 766 764 767 771 766 759 757 759 766 769 768 765 768 768 765 769 767 745 731 735 736 735 739 738 737 737 736 738 739 741 742 741 742 745 745 745 746 747 750 753 755 757 757 759 762 764 767 771 775 779 781 784 788 791 795 798 800 803 805 807 809 809 811 813 816 819 822 824 827 830 833 836 839 841 844 845 847 849
756 759 760 761 763 756 750 756 763 767 775 774 754 738 741 754 762 763 760 756 757 759 760 761 749 729 727 736 735 735 737 735 732 732 731 733 736 739 739 737 737 737 736 738 740 742 745 746 747 749 751 754 757 759 763 767 771 774 777 782 787 790 793 797 799 802 804 807 808 808 809 812 814 817 820 822 825 828 831 834 836 838 841 842 845 847
755 754 755 758 759 756 754 759 766 772 770 751 728 722 732 743 750 753 752 749 750 751 746 739 729 721 727 734 732 731 733 731 728 726 725 728 732 735 736 734 732 731 732 734 736 738 740 741 744 747 749 754 757 760 764 767 770 774 778 783 787 789 793 796 799 801 804 806 808 807 808 811 812 815 818 820 824 826 829 831 833 836 838 840 842 844
752 753 755 757 757 756 759 765 768 762 747 726 719 724 727 728 734 741 742 740 742 744 740 734 729 723 723 728 729 728 729 728 727 725 725 728 730 730 728 726 727 728 729 731 733 734 735 738 741 744 747 751 756 760 764 767 771 775 779 782 786 789 793 795 798 801 803 806 807 806 807 809 811 814 816 819 821 824 826 829 831 833 835 837 839 840
744 750 752 755 758 760 764 765 753 739 729 722 725 732 731 728 732 740 742 737 732 733 735 734 728 721 720 723 725 726 728 730 729 726 727 729 727 725 723 721 722 725 726 727 729 730 732 736 739 742 746 749 754 758 762 765 770 774 778 781 785 788 792 795 797 800 802 804 804 804 805 807 809 812 814 817 819 821 823 825 827 830 832 834 836 838
735 741 746 752 755 753 754 752 742 736 733 722 717 724 726 723 725 733 736 728 718 718 725 727 724 720 720 720 721 725 730 733 729 721 719 723 722 721 722 721 721 723 723 725 727 728 731 734 737 741 745 749 753 756 759 763 768 772 776 780 783 787 790 793 795 797 799 801 801 801 803 804 807 809 812 814 816 818 820 822 824 827 829 832 834 835
732 733 737 744 748 749 748 746 745 746 737 716 706 711 716 716 717 722 727 720 708 708 717 721 721 719 718 719 721 725 731 735 727 714 711 717 720 720 722 722 721 722 722 723 725 727 730 732 735 739 743 747 752 755 758 761 765 770 775 778 782 785 788 790 791 794 796 798 798 799 800 802 805 807 810 812 813 814 817 819 822 824 826 828 830 831
735 734 735 738 743 748 748 742 740 737 722 707 706 713 719 719 716 722 733 724 707 707 715 717 715 714 713 717 722 726 733 734 723 711 711 716 718 719 720 721 722 722 722 723 725 727 729 732 735 738 741 745 750 753 756 760 764 768 773 777 780 783 785 786 788 790 792 793 795 797 798 800 803 805 807 809 810 812 815 817 820 822 824 826 827 828
738 738 741 740 738 740 740 736 733 725 712 708 713 720 725 721 716 727 736 722 707 713 721 717 712 712 714 719 724 726 727 724 715 712 718 721 720 721 721 721 723 724 724 726 727 728 730 733 735 738 740 744 748 751 755 759 763 768 772 775 779 782 782 783 785 788 790 791 793 795 796 799 801 803 805 807 809 811 814 816 818 820 822 823 825 827
736 736 738 736 732 733 734 731 727 718 708 709 715 720 723 722 721 723 718 707 706 717 723 721 717 717 719 722 722 721 719 719 719 721 724 724 723 724 725 724 725 726 726 728 729 730 732 735 736 739 741 744 747 751 755 759 763 768 771 775 778 778 779 781 785 787 789 790 791 793 795 797 799 801 804 806 808 810 812 814 816 818 819 821 823 825
728 730 732 731 728 728 726 726 726 715 703 708 718 723 722 719 715 710 705 708 714 715 719 723 721 719 722 723 721 719 720 724 727 726 725 726 725 727 728 728 728 728 728 729 730 731 733 735 738 741 743 746 749 752 756 760 763 767 771 774 775 776 778 782 784 785 786 787 789 791 793 796 798 800 803 805 807 809 810 812 814 816 817 820 821 822
712 718 723 721 719 723 725 726 723 709 700 707 716 719 718 711 704 703 707 715 718 715 718 723 721 720 723 722 722 724 724 726 728 727 727 728 728 729 731 731 731 731 731 732 733 734 735 737 741 744 746 749 752 754 757 761 764 767 770 772 774 776 779 781 782 783 784 786 788 790 792 794 797 799 801 803 805 807 808 810 812 814 815 817 818 820
700 705 709 706 705 712 715 711 706 701 702 708 708 706 708 708 707 709 709 711 715 719 720 719 719 722 722 719 722 726 725 726 727 727 727 729 729 731 732 732 733 734 735 736 737 738 739 741 744 747 749 751 754 756 759 762 765 768 770 772 775 777 778 779 780 782 783 785 787 789 791 793 796 798 799 801 803 805 807 808 810 811 813 814 815 817
693 697 699 694 695 702 702 699 704 709 713 715 712 710 711 713 714 715 712 709 713 718 719 717 718 722 722 721 723 725 725 727 728 728 729 729 730 732 733 734 735 736 737 739 740 741 743 743 746 749 752 754 757 759 762 765 767 769 771 773 775 776 776 778 779 780 782 784 786 789 790 793 795 796 798 800 801 803 804 806 807 809 810 811 812 813
699 703 698 692 697 704 706 708 714 716 714 715 717 718 718 717 717 717 715 714 714 716 718 718 717 720 722 723 723 724 726 728 729 730 731 731 733 734 734 735 737 737 739 741 741 743 744 745 748 751 753 756 760 762 764 767 768 769 771 772 773 774 775 777 778 780 782 784 786 788 790 791 793 794 796 798 799 800 802 803 804 806 807 808 809 810
705 706 701 697 698 698 700 708 714 714 713 715 717 717 718 718 719 720 717 716 717 717 718 718 718 721 723 723 722 723 726 729 730 731 733 733 734 736 736 737 739 740 741 742 742 744 745 747 750 752 754 757 760 762 764 766 767 768 770 771 772 774 775 777 778 780 782 783 785 787 788 790 791 793 794 796 797 799 800 801 802 803 804 805 806 806
698 701 702 702 701 698 700 710 718 717 716 717 717 716 716 716 718 720 719 719 720 720 719 720 721 722 722 723 723 723 725 728 730 730 733 735 736 737 738 739 741 742 743 743 744 745 747 748 750 752 754 756 759 761 763 764 766 768 769 771 772 774 775 777 778 780 781 783 784 786 787 789 790 791 793 794 795 796 798 799 800 801 801 802 803 803
696 699 701 701 705 705 704 710 716 714 711 712 714 714 715 716 718 720 721 721 720 720 720 721 722 722 722 723 723 722 723 727 729 730 732 734 735 737 739 739 740 741 742 743 745 746 747 748 750 752 754 756 758 761 762 764 766 768 769 771 772 773 775 776 777 779 780 782 783 784 786 787 788 789 791 792 793 794 796 797 798 799 799 800 801 802
697 698 700 703 706 703 697 699 705 702 698 701 706 707 710 716 718 719 720 721 719 719 719 720 721 723 723 723 724 724 723 726 730 731 732 733 735 737 738 738 740 741 742 744 746 747 749 750 751 753 755 757 759 761 763 765 767 768 769 771 772 773 774 775 777 778 779 780 782 783 784 785 787 788 789 790 791 793 794 795 796 797 798 799 800 801
693 692 695 698 698 693 690 694 699 695 691 694 699 701 705 712 715 716 718 718 717 718 719 718 719 722 723 725 726 725 725 727 730 732 733 735 737 737 738 739 740 742 744 745 747 748 750 752 753 755 756 758 760 762 764 765 767 768 769 771 772 773 774 775 776 777 778 779 781 782 783 784 785 786 787 788 789 791 792 793 794 795 796 797 798 799